Location: Beverley
(50.2667°N, 107.9667°W)
Time: 06:19:57
(UTC+00:00)

ZACube-1 - Pass Details

Date: 04 July 2022
Orbit: 582 x 661 km, 97.6° (Epoch: 09 August)

Event Time Altitude Azimuth Distance (km) Brightness Sun altitude
Rises 09:33:37 0° 33° (NNE) 2,966 ? -10.8°
Reaches altitude 10° 09:38:22 10° 79° (E) 2,066 ? -10.4°
Maximum altitude 09:38:47 10° 84° (E) 2,059 ? -10.4°
Drops below altitude 10° 09:39:12 10° 90° (E) 2,068 ? -10.3°
Sets 09:43:57 0° 135° (SE) 2,982 ? -9.9°
